KC5EZZ-2 Weather Reports


Display with metric or nautical units.
time (UTC)temp
F
wind
direction
speed
MPH
gust
MPH
rain 1hr
in
rain 24hr
in
rain mn
in
humidity
%
barometer
mb
20260504110544 60 173 6.0 7.0 0.00 0.00 0.00
20260504100538 60 139 0.0 0.0 0.00 0.00 0.00
20260504081528 61 155 6.0 5.0 0.00 0.00 0.00
20260504081026 61 145 4.0 4.0 0.00 0.00 0.00
20260504080526 61 159 3.0 4.0 0.00 0.00 0.00
20260504050507 65 118 5.0 5.0 0.00 0.00 0.00
20260504050007 66 136 6.0 5.0 0.00 0.00 0.00
20260504045505 66 135 6.0 4.0 0.00 0.00 0.00
20260504045005 65 127 5.0 6.0 0.00 0.00 0.00
20260504044505 66 127 5.0 7.0 0.00 0.00 0.00
20260504044003 66 139 4.0 4.0 0.00 0.00 0.00
20260504043503 66 152 4.0 4.0 0.00 0.00 0.00
20260504043004 66 146 5.0 5.0 0.00 0.00 0.00
20260504042501 67 165 4.0 5.0 0.00 0.00 0.00
20260504042002 67 159 4.0 5.0 0.00 0.00 0.00
20260504041502 67 145 4.0 5.0 0.00 0.00 0.00
20260504041000 67 150 5.0 6.0 0.00 0.00 0.00
20260504040500 67 156 7.0 6.0 0.00 0.00 0.00
20260504040001 67 153 6.0 5.0 0.00 0.00 0.00
20260504035458 67 165 8.0 6.0 0.00 0.00 0.00
20260504034959 67 146 8.0 8.0 0.00 0.00 0.00
20260504034459 68 138 8.0 8.0 0.00 0.00 0.00
20260504033957 67 135 7.0 11.0 0.00 0.00 0.00
20260504033457 68 128 7.0 8.0 0.00 0.00 0.00
20260504032958 67 197 5.0 5.0 0.00 0.00 0.00
20260504032455 68 163 6.0 5.0 0.00 0.00 0.00
20260504031956 68 145 6.0 8.0 0.00 0.00 0.00
20260504031456 69 165 7.0 6.0 0.00 0.00 0.00
20260504030954 68 174 6.0 6.0 0.00 0.00 0.00
20260504030454 68 124 6.0 6.0 0.00 0.00 0.00
20260504025954 69 134 7.0 6.0 0.00 0.00 0.00
20260504025452 69 142 7.0 8.0 0.00 0.00 0.00
20260504024952 69 155 6.0 6.0 0.00 0.00 0.00
20260504024453 69 141 6.0 7.0 0.00 0.00 0.00
20260504023950 70 166 6.0 7.0 0.00 0.00 0.00
20260504023451 70 142 7.0 8.0 0.00 0.00 0.00
20260504022951 70 129 6.0 7.0 0.00 0.00 0.00
20260504022449 70 141 7.0 6.0 0.00 0.00 0.00
20260504021949 70 145 7.0 8.0 0.00 0.00 0.00
20260504021450 71 128 8.0 6.0 0.00 0.00 0.00
20260504020947 71 134 7.0 8.0 0.00 0.00 0.00
20260504020448 71 139 7.0 9.0 0.00 0.00 0.00
20260504015948 71 153 7.0 5.0 0.00 0.00 0.00
20260504015445 71 120 7.0 8.0 0.00 0.00 0.00
20260504014946 71 145 6.0 9.0 0.00 0.00 0.00
20260504014446 71 145 6.0 8.0 0.00 0.00 0.00
20260504013944 72 159 7.0 7.0 0.00 0.00 0.00
20260504013444 72 155 7.0 7.0 0.00 0.00 0.00
20260504012945 72 153 7.0 5.0 0.00 0.00 0.00
20260504012442 72 141 7.0 10.0 0.00 0.00 0.00
20260504011943 72 145 9.0 7.0 0.00 0.00 0.00
20260504010941 73 145 7.0 9.0 0.00 0.00 0.00
20260504010441 73 173 10.0 7.0 0.00 0.00 0.00
20260504005941 73 153 10.0 9.0 0.00 0.00 0.00
20260504005439 73 131 10.0 10.0 0.00 0.00 0.00
20260504004939 74 155 10.0 7.0 0.00 0.00 0.00
20260504004440 74 186 12.0 11.0 0.00 0.00 0.00
20260504003937 74 152 9.0 9.0 0.00 0.00 0.00
20260504003437 74 160 10.0 8.0 0.00 0.00 0.00
20260504002938 74 156 10.0 11.0 0.00 0.00 0.00
20260504002435 75 180 6.0 7.0 0.00 0.00 0.00
20260504001936 75 150 8.0 7.0 0.00 0.00 0.00
20260504001436 75 120 10.0 8.0 0.00 0.00 0.00
20260504000933 75 152 10.0 9.0 0.00 0.00 0.00
20260504000434 75 146 10.0 9.0 0.00 0.00 0.00
20260503235934 76 125 10.0 8.0 0.00 0.00 0.00
20260503235432 76 128 12.0 13.0 0.00 0.00 0.00
20260503234932 76 107 12.0 10.0 0.00 0.00 0.00
20260503234432 76 179 8.0 12.0 0.00 0.00 0.00
20260503233930 76 131 9.0 13.0 0.00 0.00 0.00
20260503233430 76 129 10.0 11.0 0.00 0.00 0.00
20260503232931 76 139 11.0 11.0 0.00 0.00 0.00
20260503232428 77 141 13.0 8.0 0.00 0.00 0.00
20260503231929 77 155 10.0 10.0 0.00 0.00 0.00
20260503231429 77 167 11.0 10.0 0.00 0.00 0.00
20260503230927 77 127 8.0 8.0 0.00 0.00 0.00
20260503230427 77 128 9.0 8.0 0.00 0.00 0.00
20260503225927 77 142 11.0 11.0 0.00 0.00 0.00
20260503225425 77 146 13.0 10.0 0.00 0.00 0.00
20260503224926 78 159 9.0 11.0 0.00 0.00 0.00
20260503224426 77 127 11.0 12.0 0.00 0.00 0.00
20260503223923 77 125 13.0 10.0 0.00 0.00 0.00
20260503223424 77 128 12.0 11.0 0.00 0.00 0.00
20260503222924 77 149 8.0 9.0 0.00 0.00 0.00
20260503222422 76 150 13.0 10.0 0.00 0.00 0.00
20260503221922 77 150 9.0 11.0 0.00 0.00 0.00
20260503221422 77 129 11.0 14.0 0.00 0.00 0.00
20260503220920 78 166 10.0 10.0 0.00 0.00 0.00
20260503220420 78 136 10.0 12.0 0.00 0.00 0.00
20260503215921 78 159 9.0 9.0 0.00 0.00 0.00
20260503215418 77 129 13.0 15.0 0.00 0.00 0.00
20260503214919 78 97 11.0 9.0 0.00 0.00 0.00
20260503214419 78 142 13.0 13.0 0.00 0.00 0.00
20260503213917 78 105 13.0 12.0 0.00 0.00 0.00
20260503213417 78 148 12.0 10.0 0.00 0.00 0.00
20260503212918 78 110 11.0 11.0 0.00 0.00 0.00
20260503212415 78 142 10.0 13.0 0.00 0.00 0.00
20260503211916 78 120 15.0 11.0 0.00 0.00 0.00
20260503211416 80 117 11.0 17.0 0.00 0.00 0.00
20260503210915 81 153 9.0 9.0 0.00 0.00 0.00
20260503210414 82 167 9.0 7.0 0.00 0.00 0.00
20260503205914 81 127 11.0 10.0 0.00 0.00 0.00
20260503205412 81 183 9.0 9.0 0.00 0.00 0.00
20260503204912 80 176 12.0 7.0 0.00 0.00 0.00
20260503204413 80 195 10.0 7.0 0.00 0.00 0.00
20260503203910 80 180 9.0 9.0 0.00 0.00 0.00
20260503203411 80 156 12.0 14.0 0.00 0.00 0.00
20260503202911 81 176 8.0 12.0 0.00 0.00 0.00
20260503202409 80 124 4.0 2.0 0.00 0.00 0.00
20260503201909 80 187 10.0 9.0 0.00 0.00 0.00
20260503201409 79 105 13.0 12.0 0.00 0.00 0.00
20260503200907 79 135 8.0 9.0 0.00 0.00 0.00
20260503200407 79 118 13.0 11.0 0.00 0.00 0.00
20260503195908 79 183 8.0 11.0 0.00 0.00 0.00
20260503195405 79 177 10.0 10.0 0.00 0.00 0.00
20260503194906 80 159 10.0 13.0 0.00 0.00 0.00
20260503194406 79 136 10.0 14.0 0.00 0.00 0.00
20260503193904 78 138 8.0 10.0 0.00 0.00 0.00
20260503193404 78 134 9.0 11.0 0.00 0.00 0.00
20260503192904 77 162 7.0 8.0 0.00 0.00 0.00
20260503192402 79 128 10.0 9.0 0.00 0.00 0.00
20260503191902 79 186 13.0 13.0 0.00 0.00 0.00
20260503191403 79 118 10.0 10.0 0.00 0.00 0.00
20260503190900 78 129 14.0 11.0 0.00 0.00 0.00
20260503190401 78 146 11.0 10.0 0.00 0.00 0.00
20260503185901 78 145 10.0 9.0 0.00 0.00 0.00
20260503185359 78 117 10.0 8.0 0.00 0.00 0.00
20260503184859 79 135 8.0 8.0 0.00 0.00 0.00
20260503184359 78 184 12.0 8.0 0.00 0.00 0.00
20260503183857 79 152 10.0 15.0 0.00 0.00 0.00
20260503183357 78 138 11.0 12.0 0.00 0.00 0.00
20260503182857 78 198 14.0 10.0 0.00 0.00 0.00
20260503182355 78 129 10.0 12.0 0.00 0.00 0.00
20260503181855 78 134 8.0 9.0 0.00 0.00 0.00
20260503181356 78 118 14.0 10.0 0.00 0.00 0.00
20260503180853 78 153 5.0 3.0 0.00 0.00 0.00
20260503180354 78 200 9.0 10.0 0.00 0.00 0.00
20260503175854 77 134 10.0 10.0 0.00 0.00 0.00
20260503175352 75 120 10.0 10.0 0.00 0.00 0.00
20260503174852 76 108 13.0 9.0 0.00 0.00 0.00
20260503174352 77 122 8.0 15.0 0.00 0.00 0.00
20260503173850 77 193 11.0 10.0 0.00 0.00 0.00
20260503173350 76 149 11.0 9.0 0.00 0.00 0.00
20260503172851 77 190 11.0 11.0 0.00 0.00 0.00
20260503172348 77 173 11.0 8.0 0.00 0.00 0.00
20260503171848 76 203 9.0 9.0 0.00 0.00 0.00
20260503171349 76 200 10.0 14.0 0.00 0.00 0.00
20260503170846 76 169 11.0 11.0 0.00 0.00 0.00
20260503170347 75 156 11.0 8.0 0.00 0.00 0.00
20260503150834 70 194 8.0 8.0 0.00 0.00 0.00
20260503150334 69 197 7.0 7.0 0.00 0.00 0.00
20260503131323 66 11 0.0 0.0 0.00 0.07 0.00
20260503130820 65 11 0.0 0.0 0.00 0.07 0.00
20260503130321 64 11 0.0 0.0 0.00 0.07 0.00